Flag for Canada Weather past 2 weeks in Laval, Quebec, Canada

Now
72 °F

Broken clouds.


Feels Like: 69 °F
Forecast: 60 / 78 °F
Wind: 3 mph from West

Location: Montreal / Mirabel

Current Time: Sep 2, 2015 at 8:18:08 PM

Latest Report: Sep 2, 2015 at 7:00 PM


Visibility: 10 mi

Pressure: 29.90 "Hg

Humidity: 88%

Dew point: 68 °F

Location of LavalLocation

Historic Weather in Laval — Graph

°F

Laval temperature yesterday

Maximum temperature yesterday: 79 °F (at 4:00 PM)
Minimum temperature yesterday: 54 °F (at 5:00 AM)
Average temperature yesterday: 67 °F

Past Weeks' High & Low Weather Summary

 TemperatureHumidityPressure
High88 °F (Aug 19, 4:00 PM)100% (Aug 19, 1:00 AM)30.18 "Hg (Aug 19, 1:00 AM)
Low54 °F (Aug 28, 5:00 AM)48% (Aug 23, 5:00 PM)29.78 "Hg (Aug 24, 4:00 PM)
Average68 °F81%30.00 "Hg
* Reported Aug 18 7:00 PM — Sep 2 7:00 PM, Laval, Weather by CustomWeather, © 2015

Note: Actual official high and low records may vary slightly from our data, if they occured in-between our weather recording intervals... More about our weather records

Advertising

Laval weather history for previous 24 hours

 ConditionsComfort  
Time TempWeatherWind HumidityBarometerVisibility
7:00 PM
Wed, Sep 2
72 °FBroken clouds.3 mph88%29.90 "Hg10 mi
6:00 PM72 °FBroken clouds.8 mph88%29.90 "Hg8 mi
5:00 PM73 °FPartly sunny.9 mph83%29.91 "Hg8 mi
4:00 PM73 °FFog.10 mph83%29.92 "Hg5 mi
3:00 PM73 °FFog.9 mph83%29.94 "Hg5 mi
2:00 PM73 °FFog.9 mph83%29.95 "Hg5 mi
1:00 PM72 °FFog.10 mph88%29.97 "Hg5 mi
12:00 PM70 °FFog.8 mph94%29.98 "Hg5 mi
11:00 AM68 °FFog.6 mph94%29.98 "Hg2 mi
10:00 AM68 °FFog.5 mph94%29.98 "Hg2 mi
9:00 AM66 °FDrizzle. Fog.6 mph100%29.98 "Hg2 mi
8:52 AM66 °FDrizzle. Fog.7 mph100%29.98 "Hg1 mi
8:00 AM66 °FDrizzle. Fog.3 mph100%29.99 "Hg1 mi
7:00 AM66 °FDrizzle. Fog.3 mph100%29.99 "Hg1 mi
6:00 AM66 °FDrizzle. Fog.3 mph100%29.98 "Hg1 mi
5:00 AM66 °FFog.5 mph100%29.99 "Hg3 mi
4:00 AM66 °FFog.6 mph100%29.98 "Hg6 mi
3:00 AM66 °FFog.3 mph100%29.98 "Hg5 mi
2:00 AM66 °FClear.5 mph94%29.99 "Hg15 mi
1:00 AM66 °FClear.5 mph100%30.00 "Hg15 mi
12:00 AM68 °FClear.5 mph94%30.00 "Hg25 mi
11:00 PM
Tue, Sep 1
70 °FClear.5 mph88%29.99 "Hg25 mi
10:00 PM72 °FClear.8 mph83%29.99 "Hg25 mi
9:00 PM70 °FClear.5 mph88%30.00 "Hg25 mi
8:00 PM66 °FPartly sunny.5 mph94%30.00 "Hg15 mi
Weather by CustomWeather, © 2015

See weather overviewHow to use our weather pages